Flag for Brazil Weather past 2 weeks in Brasilia, Distrito Federal, Brazil

Now
66 °F

Sunny.


Feels Like: 66 °F
Forecast: 67 / 88 °F
Wind: No wind

Location: Brasilia Aeroporto

Current Time: Aug 30, 2014 at 7:43:27 AM

Latest Report: Aug 30, 2014 at 7:00 AM


Visibility: 10 mi

Pressure: 30.15 "Hg

Humidity: 56%

Dew point: 50 °F

Location of BrasiliaLocation

Historic Weather in Brasilia — Graph

°F

Brasilia temperature yesterday

Maximum temperature yesterday: 91 °F (at 2:00 PM)
Minimum temperature yesterday: 66 °F (at 6:00 AM)
Average temperature yesterday: 79 °F

Past Weeks' High & Low Weather Summary

 TemperatureHumidityPressure
High91 °F (Aug 29, 2:00 PM)77% (Aug 16, 5:00 AM)30.36 "Hg (Aug 16, 5:00 AM)
Low55 °F (Aug 18, 5:00 AM)16% (Aug 23, 4:00 PM)30.01 "Hg (Aug 27, 4:00 PM)
Average73 °F41%30.16 "Hg
* Reported Aug 15 6:00 AM — Aug 30 6:00 AM, Brasilia, Weather by CustomWeather, © 2014

Note: Actual official high and low records may vary slightly from our data, if they occured in-between our weather recording intervals... More about our weather records

Advertising

Brasilia weather history for previous 24 hours

 ConditionsComfort  
Time TempWeatherWind HumidityBarometerVisibility
6:00 AM
Aug 30
66 °FClear.No wind52%30.15 "Hg10 mi
5:00 AM66 °FClear.No wind52%30.12 "Hg10 mi
4:00 AM66 °FClear.No wind52%30.12 "Hg10 mi
3:00 AM68 °FClear.No wind53%30.12 "Hg10 mi
2:00 AM70 °FClear.No wind50%30.12 "Hg10 mi
1:00 AM68 °FClear.No wind53%30.12 "Hg10 mi
12:00 AM72 °FClear.No wind47%30.15 "Hg10 mi
11:00 PM
Aug 29
73 °FClear.No wind41%30.15 "Hg10 mi
10:00 PM77 °FClear.3 mph34%30.15 "Hg10 mi
9:00 PM79 °FClear.2 mph34%30.12 "Hg10 mi
8:00 PM82 °FClear.8 mph28%30.12 "Hg10 mi
7:00 PM84 °FClear.6 mph27%30.09 "Hg10 mi
6:00 PM88 °FScattered clouds.6 mph22%30.09 "HgN/A
4:00 PM90 °FPartly sunny.9 mph21%30.07 "HgN/A
3:00 PM91 °FPartly sunny.3 mph18%30.07 "HgN/A
2:00 PM91 °FBroken clouds.6 mph20%30.09 "HgN/A
1:00 PM88 °FScattered clouds.7 mph21%30.12 "HgN/A
12:00 PM88 °FSunny.8 mph22%30.15 "Hg10 mi
11:00 AM86 °FSunny.12 mph24%30.15 "Hg10 mi
10:00 AM82 °FSunny.12 mph28%30.18 "Hg10 mi
9:00 AM79 °FSunny.6 mph34%30.18 "Hg10 mi
8:00 AM72 °FSunny.3 mph47%30.15 "Hg10 mi
7:00 AM66 °FSunny.No wind60%30.15 "Hg10 mi
Weather by CustomWeather, © 2014

See weather overviewHow to use our weather pages